This is the latest recevied weather packets stored in our database for station/object K7MT-WX. If no packets are shown the sender has not sent any weather packets the latest 10 day(s).
| Time | Temp. | Humidity | Pressure | Rain* | Wind** | Luminosity | Snow |
|---|---|---|---|---|---|---|---|
| 1788317465 | 20° C | 44% | 1008.5 hPa | 0 mm | - | - | - |
| 1788316565 | 21.67° C | 36% | 1008.2 hPa | 0 mm | - | - | - |
| 1788315665 | 22.22° C | 36% | 1008.2 hPa | 0 mm | - | - | - |
| 1788314765 | 22.78° C | 34% | 1008.2 hPa | 0 mm | - | - | - |
| 1788313865 | 23.33° C | 35% | 1008.1 hPa | 0 mm | - | - | - |
| 1788312965 | 24.44° C | 34% | 1008.1 hPa | 0 mm | - | - | - |
| 1788312065 | 25° C | 33% | 1007.9 hPa | 0 mm | - | - | - |
| 1788311165 | 25.56° C | 33% | 1007.9 hPa | 0 mm | - | - | - |
| 1788310235 | 26.67° C | 28% | 1008.2 hPa | 0 mm | - | - | - |
| 1788309305 | 26.11° C | 30% | 1008.3 hPa | 0 mm | - | - | - |
| 1788308405 | 26.67° C | 30% | 1008.4 hPa | 0 mm | - | - | - |
| 1788307505 | 27.22° C | 28% | 1008.3 hPa | 0 mm | - | - | - |
| 1788306605 | 27.22° C | 28% | 1008.3 hPa | 0 mm | - | - | - |
| 1788305705 | 27.22° C | 27% | 1008.2 hPa | 0 mm | - | - | - |
| 1788304805 | 27.78° C | 27% | 1008.2 hPa | 0 mm | - | - | - |
| 1788303905 | 28.89° C | 25% | 1008.1 hPa | 0 mm | - | - | - |
| 1788303005 | 29.44° C | 24% | 1008.1 hPa | 0 mm | - | - | - |
| 1788302105 | 30° C | 24% | 1008.2 hPa | 0 mm | - | - | - |
| 1788301205 | 30.56° C | 24% | 1008.2 hPa | 0 mm | - | - | - |
| 1788300305 | 30° C | 24% | 1008.6 hPa | 0 mm | - | - | - |
| 1788299405 | 30° C | 22% | 1008.8 hPa | 0 mm | - | - | - |
| 1788298505 | 30° C | 24% | 1009.1 hPa | 0 mm | - | - | - |
| 1788297605 | 30° C | 28% | 1009.3 hPa | 0 mm | - | - | - |
| 1788296705 | 30° C | 26% | 1009.7 hPa | 0 mm | - | - | - |
| 1788295805 | 29.44° C | 28% | 1009.8 hPa | 0 mm | - | - | - |
* Rain latest hour (hover to see other rain measurements)
** Current wind speed in m/s (hover to see current wind gust speed)